Total_Precipitation_Accumulation
0.00 0.00 0.01 0.00 0.00 0.00 0.00 0.00 0.00 0.00 0.00 0.01 0.02 0.01 0.00 0.00 0.00 0.00 0.00 0.00 0.00 0.00 0.00 0.00 0.00 0.00 0.00 0.00 0.00 0.00 0.00 0.00 0.00 0.00 0.00 0.00 0.00 0.00 0.00 0.00 0.00 0.00 0.00
0.00 0.00 0.01 0.00 0.00 0.00 0.00 0.00 0.00 0.00 0.00 0.00 0.00 0.00 0.00 0.00 0.00 0.00 0.00 0.00 0.00 0.00 0.00 0.00 0.00 0.00 0.00 0.00 0.00 0.00 0.00 0.00 0.00 0.00 0.00 0.00 0.00 0.00 0.00 0.00 0.00 0.00 0.00
0.00 0.00 0.00 0.00 0.00 0.00 0.00 0.00 0.00 0.00 0.00 0.00 0.00 0.00 0.00 0.00 0.00 0.00 0.00 0.00 0.00 0.00 0.00 0.00 0.00 0.00 0.00 0.00 0.00 0.00 0.00 0.00 0.00 0.00 0.00 0.00 0.00 0.00 0.00 0.00 0.00 0.00 0.00
0.00 0.00 0.00 0.00 0.00 0.00 0.00 0.00 0.00 0.00 0.00 0.00 0.00 0.00 0.00 0.00 0.00 0.00 0.00 0.00 0.00 0.00 0.00 0.00 0.00 0.00 0.00 0.00 0.00 0.00 0.00 0.00 0.00 0.00 0.00 0.00 0.00 0.00 0.00 0.00 0.00 0.00 0.00
0.00 0.00 0.00 0.00 0.00 0.00 0.00 0.00 0.00 0.00 0.00 0.00 0.00 0.00 0.00 0.00 0.00 0.00 0.00 0.00 0.00 0.00 0.00 0.00 0.00 0.00 0.00 0.01 0.01 0.01 0.00 0.00 0.00 0.00 0.00 0.00 0.00 0.00 0.00 0.01 0.00 0.00 0.00
0.00 0.00 0.00 0.00 0.00 0.00 0.00 0.00 0.00 0.00 0.00 0.00 0.00 0.00 0.00 0.00 0.00 0.00 0.00 0.00 0.00 0.00 0.00 0.00 0.00 0.00 0.00 0.00 0.01 0.01 0.01 0.01 0.01 0.01 0.01 0.01 0.02 0.02 0.01 0.03 0.03 0.03 0.01
0.00 0.00 0.00 0.00 0.00 0.00 0.00 0.00 0.00 0.00 0.00 0.00 0.00 0.00 0.00 0.00 0.00 0.00 0.00 0.00 0.00 0.00 0.00 0.00 0.00 0.00 0.00 0.00 0.00 0.00 0.00 0.00 0.01 0.02 0.02 0.02 0.03 0.02 0.04 0.09 0.10 0.08 0.05
0.00 0.00 0.00 0.00 0.00 0.00 0.00 0.00 0.00 0.00 0.00 0.00 0.00 0.00 0.00 0.00 0.01 0.01 0.02 0.01 0.01 0.01 0.01 0.00 0.00 0.00 0.01 0.01 0.01 0.01 0.01 0.00 0.00 0.00 0.01 0.01 0.01 0.03 0.10 0.17 0.19 0.19 0.14
0.00 0.00 0.00 0.00 0.00 0.00 0.00 0.00 0.00 0.00 0.00 0.00 0.00 0.00 0.00 0.00 0.02 0.03 0.05 0.04 0.03 0.02 0.02 0.01 0.00 0.00 0.01 0.01 0.01 0.01 0.02 0.01 0.01 0.00 0.00 0.01 0.01 0.06 0.17 0.23 0.29 0.33 0.33
0.00 0.00 0.00 0.00 0.00 0.00 0.00 0.00 0.00 0.00 0.00 0.00 0.00 0.00 0.00 0.00 0.02 0.03 0.03 0.04 0.07 0.07 0.06 0.04 0.01 0.00 0.01 0.01 0.00 0.00 0.01 0.01 0.01 0.01 0.01 0.01 0.02 0.05 0.13 0.20 0.33 0.39 0.37
0.01 0.01 0.00 0.00 0.00 0.00 0.00 0.00 0.00 0.00 0.00 0.00 0.00 0.00 0.01 0.00 0.00 0.01 0.02 0.03 0.07 0.09 0.08 0.05 0.02 0.01 0.02 0.01 0.01 0.01 0.01 0.01 0.00 0.01 0.01 0.01 0.02 0.04 0.11 0.23 0.32 0.36 0.33
0.01 0.01 0.00 0.00 0.00 0.00 0.00 0.00 0.00 0.00 0.00 0.00 0.00 0.00 0.00 0.01 0.02 0.03 0.06 0.11 0.11 0.13 0.11 0.09 0.06 0.04 0.03 0.04 0.09 0.10 0.06 0.06 0.06 0.03 0.03 0.11 0.16 0.13 0.21 0.28 0.27 0.26 0.23
0.00 0.00 0.00 0.00 0.00 0.00 0.00 0.00 0.00 0.00 0.01 0.01 0.00 0.00 0.00 0.01 0.03 0.06 0.05 0.08 0.09 0.10 0.08 0.12 0.13 0.08 0.07 0.11 0.16 0.15 0.10 0.08 0.06 0.02 0.02 0.14 0.22 0.24 0.33 0.31 0.25 0.20 0.17
0.00 0.00 0.00 0.00 0.00 0.00 0.00 0.00 0.00 0.00 0.01 0.01 0.01 0.01 0.01 0.01 0.01 0.02 0.03 0.04 0.05 0.05 0.07 0.10 0.10 0.08 0.09 0.07 0.12 0.10 0.10 0.12 0.07 0.11 0.10 0.22 0.22 0.20 0.32 0.34 0.23 0.21 0.18
0.00 0.00 0.00 0.00 0.00 0.00 0.01 0.00 0.00 0.00 0.00 0.00 0.01 0.01 0.01 0.02 0.01 0.01 0.01 0.01 0.01 0.02 0.03 0.06 0.06 0.06 0.09 0.07 0.04 0.06 0.09 0.15 0.18 0.27 0.17 0.22 0.18 0.11 0.23 0.24 0.17 0.18 0.17
0.00 0.00 0.00 0.00 0.00 0.01 0.01 0.00 0.00 0.00 0.00 0.00 0.01 0.01 0.02 0.02 0.01 0.01 0.00 0.01 0.01 0.01 0.01 0.02 0.05 0.07 0.09 0.12 0.09 0.10 0.10 0.11 0.19 0.24 0.17 0.16 0.12 0.09 0.11 0.12 0.12 0.13 0.13
0.00 0.00 0.00 0.00 0.00 0.00 0.00 0.00 0.00 0.00 0.00 0.00 0.00 0.01 0.01 0.01 0.01 0.02 0.01 0.01 0.02 0.02 0.02 0.02 0.05 0.06 0.07 0.09 0.05 0.06 0.05 0.05 0.07 0.11 0.11 0.09 0.08 0.09 0.09 0.08 0.08 0.08 0.09
0.00 0.00 0.00 0.00 0.00 0.00 0.01 0.00 0.00 0.00 0.00 0.00 0.00 0.01 0.01 0.02 0.03 0.05 0.03 0.02 0.05 0.04 0.03 0.04 0.05 0.07 0.15 0.18 0.07 0.03 0.03 0.02 0.01 0.02 0.03 0.05 0.08 0.06 0.08 0.08 0.07 0.07 0.09
0.00 0.01 0.01 0.01 0.00 0.00 0.01 0.01 0.00 0.00 0.00 0.00 0.01 0.02 0.03 0.04 0.06 0.09 0.08 0.09 0.09 0.06 0.05 0.05 0.05 0.09 0.13 0.19 0.14 0.07 0.07 0.06 0.02 0.02 0.01 0.01 0.03 0.07 0.09 0.07 0.04 0.05 0.09
0.01 0.00 0.00 0.01 0.02 0.03 0.05 0.06 0.04 0.02 0.01 0.01 0.02 0.05 0.07 0.11 0.14 0.17 0.13 0.13 0.13 0.10 0.10 0.12 0.11 0.13 0.11 0.17 0.17 0.10 0.08 0.04 0.03 0.02 0.04 0.03 0.01 0.01 0.03 0.05 0.07 0.04 0.04
0.01 0.01 0.03 0.05 0.10 0.14 0.19 0.23 0.22 0.14 0.10 0.10 0.13 0.19 0.26 0.32 0.34 0.34 0.24 0.23 0.18 0.13 0.10 0.13 0.14 0.09 0.08 0.18 0.17 0.10 0.02 0.01 0.01 0.00 0.02 0.02 0.01 0.00 0.01 0.04 0.06 0.05 0.03
0.05 0.06 0.08 0.11 0.16 0.20 0.26 0.35 0.42 0.46 0.45 0.43 0.45 0.47 0.51 0.51 0.45 0.38 0.33 0.26 0.19 0.14 0.09 0.08 0.07 0.05 0.03 0.10 0.15 0.13 0.04 0.01 0.00 0.00 0.00 0.00 0.00 0.00 0.02 0.04 0.06 0.08 0.06
0.10 0.11 0.18 0.22 0.25 0.35 0.47 0.60 0.68 0.76 0.82 0.84 0.84 0.90 0.87 0.80 0.71 0.59 0.46 0.32 0.19 0.12 0.07 0.05 0.05 0.04 0.04 0.07 0.17 0.23 0.12 0.04 0.03 0.01 0.01 0.01 0.01 0.03 0.04 0.04 0.04 0.04 0.03
0.15 0.19 0.31 0.36 0.41 0.58 0.80 0.88 0.92 1.05 1.21 1.34 1.45 1.46 1.38 1.24 1.08 0.87 0.64 0.41 0.22 0.11 0.06 0.04 0.05 0.09 0.10 0.07 0.12 0.18 0.19 0.12 0.08 0.04 0.04 0.05 0.05 0.03 0.02 0.02 0.01 0.01 0.01
0.29 0.36 0.55 0.66 0.79 0.99 1.14 1.24 1.33 1.43 1.51 1.49 1.47 1.41 1.35 1.28 1.13 0.93 0.67 0.44 0.24 0.10 0.04 0.03 0.04 0.09 0.12 0.09 0.09 0.11 0.16 0.18 0.15 0.12 0.08 0.11 0.11 0.05 0.02 0.00 0.00 0.00 0.00
0.77 0.74 0.80 0.88 1.02 1.15 1.21 1.28 1.31 1.27 1.24 1.16 1.07 0.97 0.90 0.86 0.77 0.63 0.45 0.29 0.17 0.08 0.04 0.02 0.03 0.05 0.06 0.08 0.11 0.12 0.15 0.19 0.24 0.26 0.21 0.20 0.17 0.10 0.04 0.02 0.01 0.01 0.00